Location: Malvern Link
(52.1333°N, 2.3000°W)
Time: 16:11:49
(UTC+00:00)

SPROUT - Pass Details

Date: 05 July 2022
Orbit: 588 x 598 km, 97.9° (Epoch: 09 August)

Event Time Altitude Azimuth Distance (km) Brightness Sun altitude
Exits shadow 23:32:08 - 113° (ESE) 2,096 ? -14.6°
Reaches altitude 10° 23:32:41 10° 109° (ESE) 1,920 ? -14.6°
Maximum altitude 23:35:48 21° 60° (ENE) 1,355 ? -14.7°
Drops below altitude 10° 23:38:56 10° 12° (NNE) 1,933 ? -14.8°
Sets 23:41:30 0° 356° (N) 2,841 ? -14.8°
